Time,TemperatureF,DewpointF,PressureIn,WindDirection,WindDirectionDegrees,WindSpeedMPH,WindSpeedGustMPH,Humidity,HourlyPrecipIn,Conditions,Clouds,dailyrainin,SoftwareType,DateUTC
2013-01-31 00:03:00,55.0,54.0,29.14,SSW,200,14.0,21.0,93,-99.99,,,-99.99,,2013-01-31 05:03:00,
2013-01-31 00:11:00,55.0,54.0,29.12,South,190,14.0,18.0,93,-99.99,,,-99.99,,2013-01-31 05:11:00,
2013-01-31 00:22:00,55.0,54.0,29.11,SSW,200,14.0,21.0,93,-99.99,,,-99.99,,2013-01-31 05:22:00,
2013-01-31 00:32:00,55.0,54.0,29.11,SSW,200,14.0,21.0,93,-99.99,,,-99.99,,2013-01-31 05:32:00,
2013-01-31 00:42:00,55.0,54.0,29.09,SSW,200,12.0,18.0,93,-99.99,,,-99.99,,2013-01-31 05:42:00,
2013-01-31 00:52:00,55.0,54.0,29.09,SSW,200,12.0,18.0,93,-99.99,,,-99.99,,2013-01-31 05:52:00,
2013-01-31 01:01:00,55.0,54.0,29.09,SSW,200,12.0,18.0,93,-99.99,,,-99.99,,2013-01-31 06:01:00,
2013-01-31 01:10:00,55.0,54.0,29.09,SSW,200,12.0,18.0,93,-99.99,,,-99.99,,2013-01-31 06:10:00,
2013-01-31 09:03:00,36.0,34.0,29.06,WSW,250,30.0,40.0,93,-99.99,,,-99.99,,2013-01-31 14:03:00,
2013-01-31 09:11:00,36.0,30.0,29.07,West,260,35.0,47.0,80,-99.99,,,-99.99,,2013-01-31 14:11:00,
2013-01-31 09:22:00,36.0,28.0,29.08,WSW,250,35.0,44.0,74,-99.99,,,-99.99,,2013-01-31 14:22:00,
2013-01-31 09:32:00,36.0,28.0,29.08,West,260,32.0,46.0,74,-99.99,,,-99.99,,2013-01-31 14:32:00,
2013-01-31 09:42:00,36.0,27.0,29.08,West,260,35.0,45.0,69,-99.99,,,-99.99,,2013-01-31 14:42:00,
2013-01-31 09:52:00,36.0,27.0,29.08,WSW,250,28.0,45.0,69,-99.99,,,-99.99,,2013-01-31 14:52:00,
2013-01-31 10:03:00,36.0,27.0,29.08,WSW,250,28.0,45.0,69,-99.99,,,-99.99,,2013-01-31 15:03:00,
2013-01-31 10:12:00,36.0,27.0,29.08,West,260,37.0,45.0,69,-99.99,,,-99.99,,2013-01-31 15:12:00,
2013-01-31 10:22:00,36.0,27.0,29.10,WSW,250,32.0,45.0,69,-99.99,,,-99.99,,2013-01-31 15:22:00,
2013-01-31 10:32:00,36.0,25.0,29.10,West,260,31.0,46.0,64,-99.99,,,-99.99,,2013-01-31 15:32:00,
2013-01-31 10:42:00,36.0,25.0,29.11,West,260,35.0,46.0,64,-99.99,,,-99.99,,2013-01-31 15:42:00,
2013-01-31 10:51:00,34.0,25.0,29.13,West,260,32.0,46.0,69,-99.99,,,-99.99,,2013-01-31 15:51:00,
2013-01-31 11:03:00,34.0,25.0,29.13,West,260,32.0,46.0,69,-99.99,,,-99.99,,2013-01-31 16:03:00,
2013-01-31 11:12:00,34.0,21.0,29.14,West,260,36.0,51.0,59,-99.99,,,-99.99,,2013-01-31 16:12:00,
2013-01-31 11:22:00,34.0,21.0,29.15,West,260,25.0,46.0,59,-99.99,,,-99.99,,2013-01-31 16:22:00,
2013-01-31 11:33:00,34.0,21.0,29.15,West,260,30.0,43.0,59,-99.99,,,-99.99,,2013-01-31 16:33:00,
2013-01-31 11:42:00,34.0,23.0,29.15,West,260,35.0,41.0,64,-99.99,,,-99.99,,2013-01-31 16:42:00,
2013-01-31 11:52:00,34.0,19.0,29.15,West,270,33.0,47.0,55,-99.99,,,-99.99,,2013-01-31 16:52:00,
2013-01-31 12:03:00,34.0,19.0,29.15,West,270,33.0,47.0,55,-99.99,,,-99.99,,2013-01-31 17:03:00,
2013-01-31 12:12:00,34.0,19.0,29.15,West,270,22.0,39.0,55,-99.99,,,-99.99,,2013-01-31 17:12:00,
2013-01-31 12:23:00,32.0,21.0,29.16,West,260,29.0,41.0,63,-99.99,,,-99.99,,2013-01-31 17:23:00,
2013-01-31 12:32:00,32.0,19.0,29.17,WSW,250,29.0,50.0,59,-99.99,,,-99.99,,2013-01-31 17:32:00,
2013-01-31 12:43:00,32.0,19.0,29.17,West,260,31.0,44.0,59,-99.99,,,-99.99,,2013-01-31 17:43:00,
2013-01-31 12:53:00,30.0,21.0,29.18,West,260,27.0,45.0,68,-99.99,,,-99.99,,2013-01-31 17:53:00,
2013-01-31 13:03:00,30.0,21.0,29.18,West,260,27.0,45.0,68,-99.99,,,-99.99,,2013-01-31 18:03:00,
2013-01-31 13:12:00,30.0,21.0,29.18,West,260,32.0,44.0,68,-99.99,,,-99.99,,2013-01-31 18:12:00,
2013-01-31 13:22:00,30.0,19.0,29.19,West,260,30.0,46.0,63,-99.99,,,-99.99,,2013-01-31 18:22:00,
2013-01-31 13:32:00,30.0,19.0,29.20,West,270,31.0,41.0,63,-99.99,,,-99.99,,2013-01-31 18:32:00,
2013-01-31 13:43:00,30.0,19.0,29.20,West,260,27.0,41.0,63,-99.99,,,-99.99,,2013-01-31 18:43:00,
2013-01-31 13:52:00,30.0,19.0,29.21,West,260,31.0,40.0,63,-99.99,,,-99.99,,2013-01-31 18:52:00,
2013-01-31 14:03:00,30.0,19.0,29.21,West,260,31.0,40.0,63,-99.99,,,-99.99,,2013-01-31 19:03:00,
2013-01-31 14:12:00,30.0,19.0,29.21,West,260,33.0,47.0,63,-99.99,,,-99.99,,2013-01-31 19:12:00,
2013-01-31 14:22:00,30.0,18.0,29.22,West,270,36.0,47.0,59,-99.99,,,-99.99,,2013-01-31 19:22:00,
2013-01-31 14:33:00,30.0,16.0,29.22,West,270,35.0,48.0,54,-99.99,,,-99.99,,2013-01-31 19:33:00,
2013-01-31 14:42:00,30.0,16.0,29.23,West,280,33.0,45.0,54,-99.99,,,-99.99,,2013-01-31 19:42:00,
2013-01-31 14:52:00,30.0,16.0,29.24,West,260,31.0,51.0,54,-99.99,,,-99.99,,2013-01-31 19:52:00,
2013-01-31 15:02:00,30.0,16.0,29.24,West,260,31.0,51.0,54,-99.99,,,-99.99,,2013-01-31 20:02:00,
2013-01-31 15:11:00,30.0,16.0,29.25,West,260,33.0,51.0,54,-99.99,,,-99.99,,2013-01-31 20:11:00,
2013-01-31 15:22:00,28.0,16.0,29.26,West,280,32.0,45.0,58,-99.99,,,-99.99,,2013-01-31 20:22:00,
2013-01-31 15:32:00,28.0,16.0,29.27,West,270,29.0,50.0,58,-99.99,,,-99.99,,2013-01-31 20:32:00,
2013-01-31 15:42:00,28.0,14.0,29.28,West,270,28.0,50.0,54,-99.99,,,-99.99,,2013-01-31 20:42:00,
2013-01-31 15:52:00,28.0,14.0,29.29,West,260,27.0,43.0,54,-99.99,,,-99.99,,2013-01-31 20:52:00,
2013-01-31 16:02:00,28.0,14.0,29.29,West,260,27.0,43.0,54,-99.99,,,-99.99,,2013-01-31 21:02:00,
2013-01-31 16:12:00,28.0,14.0,29.31,West,270,32.0,46.0,54,-99.99,,,-99.99,,2013-01-31 21:12:00,
2013-01-31 16:22:00,28.0,12.0,29.32,West,280,31.0,48.0,50,-99.99,,,-99.99,,2013-01-31 21:22:00,
2013-01-31 16:32:00,27.0,12.0,29.33,West,270,28.0,40.0,54,-99.99,,,-99.99,,2013-01-31 21:32:00,
2013-01-31 16:42:00,27.0,12.0,29.33,West,260,31.0,41.0,54,-99.99,,,-99.99,,2013-01-31 21:42:00,
2013-01-31 16:52:00,27.0,12.0,29.35,West,280,29.0,46.0,54,-99.99,,,-99.99,,2013-01-31 21:52:00,
2013-01-31 17:03:00,27.0,12.0,29.35,West,280,29.0,46.0,54,-99.99,,,-99.99,,2013-01-31 22:03:00,
2013-01-31 17:11:00,27.0,12.0,29.37,West,280,32.0,52.0,54,-99.99,,,-99.99,,2013-01-31 22:11:00,
2013-01-31 17:22:00,27.0,12.0,29.37,West,280,32.0,43.0,54,-99.99,,,-99.99,,2013-01-31 22:22:00,
2013-01-31 17:33:00,27.0,12.0,29.39,West,280,32.0,43.0,54,-99.99,,,-99.99,,2013-01-31 22:33:00,
2013-01-31 17:42:00,27.0,12.0,29.39,West,280,27.0,40.0,54,-99.99,,,-99.99,,2013-01-31 22:42:00,
2013-01-31 17:51:00,25.0,10.0,29.41,West,280,23.0,41.0,53,-99.99,,,-99.99,,2013-01-31 22:51:00,
2013-01-31 18:03:00,25.0,10.0,29.41,West,280,23.0,41.0,53,-99.99,,,-99.99,,2013-01-31 23:03:00,
2013-01-31 18:12:00,25.0,10.0,29.42,West,280,31.0,41.0,53,-99.99,,,-99.99,,2013-01-31 23:12:00,
2013-01-31 18:22:00,25.0,10.0,29.44,West,270,33.0,40.0,53,-99.99,,,-99.99,,2013-01-31 23:22:00,
2013-01-31 18:32:00,25.0,9.0,29.44,West,260,30.0,41.0,49,-99.99,,,-99.99,,2013-01-31 23:32:00,
2013-01-31 18:42:00,25.0,10.0,29.45,West,280,21.0,32.0,53,-99.99,,,-99.99,,2013-01-31 23:42:00,
2013-01-31 18:52:00,25.0,10.0,29.46,West,280,29.0,40.0,53,-99.99,,,-99.99,,2013-01-31 23:52:00,
2013-01-31 19:02:00,25.0,10.0,29.46,West,280,29.0,40.0,53,-99.99,,,-99.99,,2013-02-01 00:02:00,
2013-01-31 19:11:00,25.0,10.0,29.46,West,280,31.0,43.0,53,-99.99,,,-99.99,,2013-02-01 00:11:00,
2013-01-31 19:22:00,25.0,10.0,29.47,West,270,25.0,35.0,53,-99.99,,,-99.99,,2013-02-01 00:22:00,
2013-01-31 19:32:00,23.0,10.0,29.48,West,270,28.0,36.0,57,-99.99,,,-99.99,,2013-02-01 00:32:00,
2013-01-31 19:42:00,23.0,9.0,29.48,West,270,23.0,36.0,53,-99.99,,,-99.99,,2013-02-01 00:42:00,
2013-01-31 19:51:00,23.0,10.0,29.48,West,280,24.0,36.0,57,-99.99,,,-99.99,,2013-02-01 00:51:00,
2013-01-31 20:01:00,23.0,10.0,29.48,West,280,24.0,36.0,57,-99.99,,,-99.99,,2013-02-01 01:01:00,
2013-01-31 20:11:00,23.0,10.0,29.49,West,280,22.0,35.0,57,-99.99,,,-99.99,,2013-02-01 01:11:00,
2013-01-31 20:21:00,23.0,10.0,29.50,West,270,20.0,28.0,57,-99.99,,,-99.99,,2013-02-01 01:21:00,
2013-01-31 20:32:00,23.0,10.0,29.50,West,280,17.0,31.0,57,-99.99,,,-99.99,,2013-02-01 01:32:00,
2013-01-31 20:42:00,23.0,10.0,29.50,West,280,25.0,38.0,57,-99.99,,,-99.99,,2013-02-01 01:42:00,
2013-01-31 20:52:00,21.0,9.0,29.51,West,270,18.0,32.0,57,-99.99,,,-99.99,,2013-02-01 01:52:00,
2013-01-31 21:02:00,21.0,9.0,29.51,West,270,18.0,32.0,57,-99.99,,,-99.99,,2013-02-01 02:02:00,
2013-01-31 21:11:00,21.0,9.0,29.52,West,270,23.0,30.0,57,-99.99,,,-99.99,,2013-02-01 02:11:00,
2013-01-31 21:21:00,21.0,9.0,29.52,West,280,20.0,31.0,57,-99.99,,,-99.99,,2013-02-01 02:21:00,
2013-01-31 21:32:00,21.0,9.0,29.52,West,270,20.0,28.0,57,-99.99,,,-99.99,,2013-02-01 02:32:00,
2013-01-31 21:42:00,21.0,9.0,29.52,West,270,24.0,32.0,57,-99.99,,,-99.99,,2013-02-01 02:42:00,
2013-01-31 21:52:00,21.0,9.0,29.52,West,280,16.0,27.0,57,-99.99,,,-99.99,,2013-02-01 02:52:00,
2013-01-31 22:02:00,21.0,9.0,29.52,West,280,16.0,27.0,57,-99.99,,,-99.99,,2013-02-01 03:02:00,
2013-01-31 22:12:00,21.0,9.0,29.53,West,270,23.0,31.0,57,-99.99,,,-99.99,,2013-02-01 03:12:00,
2013-01-31 22:21:00,21.0,9.0,29.53,West,270,20.0,29.0,57,-99.99,,,-99.99,,2013-02-01 03:21:00,
2013-01-31 22:32:00,21.0,10.0,29.53,WNW,290,20.0,29.0,62,-99.99,,,-99.99,,2013-02-01 03:32:00,
2013-01-31 22:42:00,21.0,10.0,29.53,West,270,20.0,33.0,62,-99.99,,,-99.99,,2013-02-01 03:42:00,
2013-01-31 22:51:00,21.0,10.0,29.54,West,270,20.0,30.0,62,-99.99,,,-99.99,,2013-02-01 03:51:00,
2013-01-31 23:02:00,21.0,10.0,29.54,West,270,20.0,30.0,62,-99.99,,,-99.99,,2013-02-01 04:02:00,
2013-01-31 23:11:00,19.0,10.0,29.54,WNW,290,16.0,31.0,67,-99.99,,,-99.99,,2013-02-01 04:11:00,
2013-01-31 23:21:00,19.0,10.0,29.55,West,280,21.0,28.0,67,-99.99,,,-99.99,,2013-02-01 04:21:00,
2013-01-31 23:32:00,19.0,10.0,29.55,West,280,18.0,27.0,67,-99.99,,,-99.99,,2013-02-01 04:32:00,
2013-01-31 23:41:00,19.0,10.0,29.55,West,280,20.0,28.0,67,-99.99,,,-99.99,,2013-02-01 04:41:00,
2013-01-31 23:51:00,19.0,10.0,29.56,West,280,18.0,28.0,67,-99.99,,,-99.99,,2013-02-01 04:51:00,